Regional Weather Roundup
Issued by NWS

Home | Current Version | Previous Version | Graphics & Text | Print | Product List | Glossary On
Versions: 1 2 3 4 5 6 7 8 9 10 11 12 13 14 15 16 17 18 19 20 21 22 23 24 25 26 27 28 29 30 31 32 33 34 35 36 37 38 39 40 41 42 43 44 45 46 47 48 49 50
000
ASUS43 KOAX 220110
RWRNE

WEATHER ROUNDUP FOR NEBRASKA
NATIONAL WEATHER SERVICE OMAHA NE
800 PM CDT TUE OCT 21 2014

NOTES: SATELLITE DATA IS BEING USED TO AUGMENT CLOUD COVER ABOVE
       12000 FEET.
       "FAIR" INDICATES FEW OR NO CLOUDS BELOW 12,000 FEET WITH NO
       SIGNIFICANT WEATHER AND/OR OBSTRUCTIONS TO VISIBILITY.

  * THESE STATIONS DO NOT REPORT WEATHER SUCH AS RAIN...SNOW OR FOG.

NEZ001>004-019>022-054>056-220200-
NEBRASKA PANHANDLE

CITY           SKY/WX    TMP DP  RH WIND       PRES   REMARKS
SCOTTSBLUFF    MOCLDY    67  46  47 CALM      29.87R
ALLIANCE       PTCLDY    56  43  61 CALM      29.84S
CHADRON        PTCLDY    66  46  48 SW13      29.81R
KIMBALL        PTCLDY    64  37  37 S3        29.89R
SIDNEY         CLEAR     60  40  47 S12       29.88R
$$

NEZ057>060-069>072-079>082-220200-
SOUTHWEST NEBRASKA

CITY           SKY/WX    TMP DP  RH WIND       PRES   REMARKS
NORTH PLATTE   CLEAR     69  54  58 SE12      29.90R
IMPERIAL       CLEAR     69  50  50 SE13      29.89R
LEXINGTON      CLEAR     68  57  68 SE13      29.93S
MCCOOK         CLEAR     69  54  58 SE10      29.91S
OGALLALA       CLEAR     71  53  52 SE10      29.87R
$$

NEZ005>010-023>029-035>040-094-220200-
NORTH CENTRAL NEBRASKA

CITY           SKY/WX    TMP DP  RH WIND       PRES   REMARKS
VALENTINE      PTCLDY    68  54  60 SE9       29.85R
AINSWORTH      PTCLDY    66  53  62 SE12      29.89R
BROKEN BOW     CLEAR     66  53  63 SE10      29.93S
O`NEILL        CLEAR     67  39  35 SE14      29.93S
ORD            CLEAR     66  51  58 SE13      29.93R
THEDFORD       CLEAR     68  56  64 SE12      29.89S
$$

NEZ041-046>049-061>064-073>077-083>087-220200-
SOUTH CENTRAL NEBRASKA

CITY           SKY/WX    TMP DP  RH WIND       PRES   REMARKS
GRAND ISLAND   CLEAR     67  50  54 SE12      29.98R
AURORA         CLEAR     64  41  43 SE8       29.99S HAZE
HASTINGS       CLEAR     67  50  54 SE13      29.98R
HEBRON         CLEAR     61  46  57 CALM      30.00S
HOLDREGE       CLEAR     66  55  67 SE13      29.96R
KEARNEY *      CLEAR     64  52  63 SE12      29.97R
YORK           CLEAR     63  43  48 SE8       30.00S
$$

NEZ011>018-030>034-042>045-220200-
NORTHEAST NEBRASKA

CITY           SKY/WX    TMP DP  RH WIND       PRES   REMARKS
NORFOLK        CLEAR     63  43  48 SE10      29.99R
ALBION         CLEAR     63  39  41 SE8       29.97S
BLAIR          CLEAR     61  39  44 SE8       30.04R
COLUMBUS *     CLEAR     64  41  42 SE14      30.01S
FREMONT        CLEAR     63  40  44 SE7       30.03R
TEKAMAH        CLEAR     59  41  51 SE10      30.03R
WAYNE          CLEAR     62  43  49 SE12      30.00S
$$

NEZ050>053-065>068-078-088>093-220200-
SOUTHEAST NEBRASKA

CITY           SKY/WX    TMP DP  RH WIND       PRES   REMARKS
LINCOLN        CLEAR     63  41  44 SE9       30.04R
OMAHA EPPLEY   CLEAR     62  39  42 SE12      30.04R
BEATRICE       CLEAR     62  42  46 SE6       30.03R
FALLS CITY     CLEAR     59  38  45 SE6       30.05R
NEBRASKA CITY  CLEAR     63  31  29 SE8       30.05R
PLATTSMOUTH    CLEAR     61  36  39 SE7       30.05R
$$

NEZ044-045-051>053-067-220200-
OMAHA AREA

CITY           SKY/WX    TMP DP  RH WIND       PRES   REMARKS
OMAHA EPPLEY   CLEAR     62  39  42 SE12      30.04R
BLAIR          CLEAR     61  39  44 SE8       30.04R
FREMONT        CLEAR     63  40  44 SE7       30.03R
MILLARD        CLEAR     60  41  49 SE3       30.04R
OFFUTT AFB     CLEAR     57  41  55 E5        30.04R
PLATTSMOUTH    CLEAR     61  36  39 SE7       30.05R
WAHOO          FAIR      56  39  53 SE8       30.02S
$$



USA.gov is the U.S. government's official web portal to all federal, state and local government web resources and services.